Date String (YYYY-MM-DD hh:mm:ss) UTC,Instrument flags,absolute air pressure of the measurement (hPa),sample flow rate (lpm),inlet stack bypass flow (lpm),air temperature of the measurement (°C),ambient temperature measured by the external sensor (°C),aerosol sample conditioner tube jacket temperature (°C),OPC LED temperature (°C),internal box temperature (°C),relative humidity of the measurement (%),span deviation,mass concentration of particles derived from Lorenz-Mie calculation of OPC scattering (μg/m³),mass concentration of particles derived from Lorenz-Mie calculation of OPC scattering (μg/m³),mass concentration of particles derived from Lorenz-Mie calculation of OPC scattering (μg/m³)
DateTimeUTC,F1_M11,P_M11,Q1_M11,Q2_M11,T1_M11,T2_M11,T3_M11,T4_M11,T5_M11,U1_M11,ZSPAN_M11,X0_M11,X2_M11,X1_M11
2023-11-09 22:00:00,SystemResetWarning,0833.7,5.00,000.00,026.0,025.2,000.0,034.3,027.3,10.1,0000.0,0008.20,0004.22,0003.80
2023-11-09 22:01:00,SystemResetWarning,0833.7,5.01,000.00,026.0,025.2,000.0,034.3,027.3,10.2,0000.0,0008.04,0004.26,0003.83
2023-11-09 22:02:00,SystemResetWarning,0833.7,5.00,000.00,026.0,025.2,000.0,034.3,027.4,10.4,0000.0,0007.62,0004.31,0003.87
2023-11-09 22:03:00,SystemResetWarning,0833.7,5.00,000.00,026.0,025.2,000.0,034.3,027.4,10.2,0000.0,0007.42,0004.33,0003.90
2023-11-09 22:04:00,SystemResetWarning,0833.7,5.00,000.00,026.0,025.2,000.0,034.3,027.4,10.3,0000.0,0007.52,0004.36,0003.92
2023-11-09 22:05:00,SystemResetWarning,0833.7,5.01,000.00,026.0,025.2,000.0,034.3,027.3,10.2,0000.0,0007.50,0004.36,0003.92
2023-11-09 22:06:00,SystemResetWarning,0833.7,5.01,000.00,026.0,025.2,000.0,034.3,027.3,10.2,0000.0,0007.45,0004.36,0003.92
2023-11-09 22:07:00,SystemResetWarning,0833.7,5.00,000.00,026.0,025.2,000.0,034.3,027.2,10.3,0000.0,0007.41,0004.34,0003.92
2023-11-09 22:08:00,SystemResetWarning,0833.7,5.00,000.00,026.0,025.2,000.0,034.3,027.2,10.3,0000.0,0007.25,0004.31,0003.92
2023-11-09 22:09:00,SystemResetWarning,0833.7,5.00,000.00,026.0,025.2,000.0,034.3,027.2,10.1,0000.0,0007.43,0004.33,0003.94
2023-11-09 22:10:00,SystemResetWarning,0833.7,5.00,000.00,026.0,025.2,000.0,034.3,027.3,10.1,0000.0,0007.52,0004.35,0003.95
2023-11-09 22:11:00,SystemResetWarning,0833.7,5.00,000.00,026.0,025.2,000.0,034.3,027.3,10.1,0000.0,0007.59,0004.36,0003.96
2023-11-09 22:12:00,SystemResetWarning,0833.7,5.00,000.00,026.0,025.2,000.0,034.3,027.3,10.2,0000.0,0007.52,0004.35,0003.96
2023-11-09 22:13:00,SystemResetWarning,0833.7,5.00,000.00,026.0,025.2,000.0,034.3,027.3,10.1,0000.0,0007.53,0004.36,0003.98
2023-11-09 22:14:00,SystemResetWarning,0833.7,5.01,000.00,026.0,025.2,000.0,034.3,027.3,10.1,0000.0,0007.59,0004.36,0003.98
2023-11-09 22:15:00,SystemResetWarning,0833.7,5.01,000.00,026.0,025.2,000.0,034.3,027.2,10.1,0000.0,0007.51,0004.35,0003.98
2023-11-09 22:16:00,SystemResetWarning,0833.7,5.00,000.00,026.0,025.2,000.0,034.3,027.2,10.1,0000.0,0007.54,0004.37,0003.99
2023-11-09 22:17:00,SystemResetWarning,0833.8,4.99,000.00,026.0,025.2,000.0,034.3,027.2,10.1,0000.0,0007.79,0004.39,0004.00
2023-11-09 22:18:00,SystemResetWarning,0833.8,4.99,000.00,026.0,025.2,000.0,034.3,027.3,10.1,0000.0,0007.90,0004.41,0004.01
2023-11-09 22:19:00,SystemResetWarning,0833.8,5.01,000.00,026.0,025.2,000.0,034.3,027.3,10.1,0000.0,0008.03,0004.43,0004.01
2023-11-09 22:20:00,SystemResetWarning,0833.8,5.01,000.00,026.0,025.2,000.0,034.3,027.3,10.1,0000.0,0008.05,0004.43,0004.01
2023-11-09 22:21:00,SystemResetWarning,0833.8,5.00,000.00,026.0,025.2,000.0,034.3,027.3,10.2,0000.0,0007.85,0004.42,0004.02
2023-11-09 22:22:00,SystemResetWarning,0833.8,5.00,000.00,026.0,025.2,000.0,034.3,027.2,10.2,0000.0,0007.81,0004.40,0004.02
2023-11-09 22:23:00,SystemResetWarning,0833.8,5.00,000.00,026.0,025.2,000.0,034.3,027.2,10.2,0000.0,0007.76,0004.39,0004.01
2023-11-09 22:24:00,SystemResetWarning,0833.8,4.99,000.00,026.0,025.2,000.0,034.3,027.3,10.3,0000.0,0007.95,0004.36,0003.99
2023-11-09 22:25:00,SystemResetWarning,0833.8,5.00,000.00,026.0,025.2,000.0,034.3,027.3,10.4,0000.0,0007.97,0004.34,0003.96
2023-11-09 22:26:00,SystemResetWarning,0833.9,5.00,000.00,026.0,025.2,000.0,034.3,027.4,10.4,0000.0,0008.20,0004.33,0003.97
2023-11-09 22:27:00,SystemResetWarning,0833.9,5.00,000.00,026.0,025.2,000.0,034.3,027.3,10.3,0000.0,0008.25,0004.34,0003.96
2023-11-09 22:28:00,SystemResetWarning,0833.9,4.99,000.00,026.0,025.2,000.0,034.3,027.3,10.3,0000.0,0008.08,0004.33,0003.96
2023-11-09 22:29:00,SystemResetWarning,0834.0,5.00,000.00,026.0,025.2,000.0,034.3,027.3,10.3,0000.0,0008.05,0004.30,0003.94
2023-11-09 22:30:00,SystemResetWarning,0834.0,5.00,000.00,026.0,025.2,000.0,034.3,027.3,10.3,0000.0,0007.99,0004.30,0003.96
2023-11-09 22:31:00,SystemResetWarning,0833.9,5.01,000.00,026.0,025.2,000.0,034.3,027.3,10.2,0000.0,0007.92,0004.31,0003.98
2023-11-09 22:32:00,SystemResetWarning,0834.0,5.01,000.00,026.0,025.2,000.0,034.3,027.4,10.4,0000.0,0008.04,0004.31,0003.98
2023-11-09 22:33:00,SystemResetWarning,0834.0,5.00,000.00,026.0,025.2,000.0,034.3,027.4,10.4,0000.0,0008.06,0004.33,0004.00
2023-11-09 22:34:00,SystemResetWarning,0834.1,5.00,000.00,026.0,025.2,000.0,034.3,027.4,10.2,0000.0,0008.06,0004.36,0004.04
2023-11-09 22:35:00,SystemResetWarning,0834.0,5.00,000.00,026.0,025.2,000.0,034.3,027.3,10.0,0000.0,0007.88,0004.38,0004.06
2023-11-09 22:36:00,SystemResetWarning,0834.1,5.00,000.00,026.0,025.2,000.0,034.3,027.2,10.1,0000.0,0007.70,0004.40,0004.07
2023-11-09 22:37:00,SystemResetWarning,0834.1,4.99,000.00,026.0,025.2,000.0,034.3,027.3,10.2,0000.0,0007.45,0004.38,0004.05
2023-11-09 22:38:00,SystemResetWarning,0834.1,5.00,000.00,026.0,025.2,000.0,034.3,027.3,10.1,0000.0,0007.47,0004.37,0004.05
2023-11-09 22:39:00,SystemResetWarning,0834.1,5.01,000.00,026.0,025.2,000.0,034.3,027.3,10.1,0000.0,0007.52,0004.40,0004.07
2023-11-09 22:40:00,SystemResetWarning,0834.1,5.01,000.00,026.0,025.2,000.0,034.3,027.3,10.2,0000.0,0007.50,0004.42,0004.09
2023-11-09 22:41:00,SystemResetWarning,0834.1,5.00,000.00,026.0,025.2,000.0,034.3,027.3,10.1,0000.0,0008.06,0004.45,0004.09
2023-11-09 22:42:00,SystemResetWarning,0834.1,5.00,000.00,026.0,025.2,000.0,034.3,027.4,10.2,0000.0,0008.47,0004.47,0004.08
2023-11-09 22:43:00,SystemResetWarning,0834.2,5.00,000.00,026.0,025.2,000.0,034.3,027.4,10.1,0000.0,0008.36,0004.46,0004.08
2023-11-09 22:44:00,SystemResetWarning,0834.1,5.00,000.00,026.0,025.2,000.0,034.3,027.3,10.0,0000.0,0008.30,0004.45,0004.06
2023-11-09 22:45:00,SystemResetWarning,0834.1,5.00,000.00,026.0,025.2,000.0,034.3,027.3,10.1,0000.0,0008.28,0004.42,0004.03
2023-11-09 22:46:00,SystemResetWarning,0834.2,5.00,000.00,026.0,025.2,000.0,034.3,027.3,10.1,0000.0,0008.58,0004.42,0004.02
2023-11-09 22:47:00,SystemResetWarning,0834.2,5.01,000.00,026.0,025.2,000.0,034.3,027.3,10.1,0000.0,0008.75,0004.41,0004.03
2023-11-09 22:48:00,SystemResetWarning,0834.2,5.00,000.00,026.0,025.2,000.0,034.3,027.4,10.0,0000.0,0008.75,0004.43,0004.04
2023-11-09 22:49:00,SystemResetWarning,0834.2,5.00,000.00,026.0,025.3,000.0,034.3,027.4,9.9,0000.0,0008.79,0004.44,0004.04
2023-11-09 22:50:00,SystemResetWarning,0834.2,4.99,000.00,026.0,025.3,000.0,034.4,027.5,9.8,0000.0,0008.72,0004.43,0004.04
2023-11-09 22:51:00,SystemResetWarning,0834.2,4.99,000.00,026.1,025.3,000.0,034.3,027.5,10.0,0000.0,0009.49,0004.45,0004.03
2023-11-09 22:52:00,SystemResetWarning,0834.2,5.00,000.00,026.1,025.3,000.0,034.4,027.5,10.1,0000.0,0009.12,0004.45,0004.04
2023-11-09 22:53:00,SystemResetWarning,0834.1,5.00,000.00,026.1,025.3,000.0,034.4,027.5,10.0,0000.0,0008.54,0004.43,0004.03
2023-11-09 22:54:00,SystemResetWarning,0834.1,5.00,000.00,026.1,025.3,000.0,034.4,027.5,10.0,0000.0,0008.54,0004.43,0004.03
2023-11-09 22:55:00,SystemResetWarning,0834.1,5.00,000.00,026.1,025.3,000.0,034.4,027.4,10.0,0000.0,0008.56,0004.45,0004.04
2023-11-09 22:56:00,SystemResetWarning,0834.1,5.00,000.00,026.1,025.3,000.0,034.4,027.3,9.9,0000.0,0008.61,0004.47,0004.05
2023-11-09 22:57:00,SystemResetWarning,0834.1,5.00,000.00,026.1,025.3,000.0,034.4,027.3,10.0,0000.0,0008.29,0004.44,0004.04
2023-11-09 22:58:00,SystemResetWarning,0834.1,4.99,000.00,026.0,025.2,000.0,034.4,027.3,10.0,0000.0,0008.02,0004.46,0004.04
2023-11-09 22:59:00,SystemResetWarning,0834.1,5.01,000.00,026.0,025.2,000.0,034.4,027.2,10.1,0000.0,0008.59,0004.51,0004.04
